Vertical_Velocity
0 -0 1 -3 -1 -2 -1 -2 -4 -1 -3 1 -1 1 -1 1 1 1 -2 1 -4 0 -1 -0 -2 -3 1 -2 -3 -1 10 -2 -0 4 -4 -3 1 -2 -0 -1 -1 0 1 1 -1 2 -1
-1 -0 -0 -1 -1 -1 0 -1 -4 0 -2 1 0 -1 -2 -4 -0 -1 -1 -2 -1 -1 -4 -3 -1 -1 -2 -2 -5 -3 1 2 4 -4 0 0 -5 -4 -1 -0 -3 -2 -0 0 -1 -0 -4
-3 -1 -1 0 -3 -1 0 -0 -2 -3 -4 2 -0 -1 -1 -2 -1 -1 0 -3 1 0 -3 -2 -6 1 -1 1 -3 2 -4 -11 5 1 -5 -4 1 2 1 2 -2 3 -3 0 2 1 1
-1 -1 -1 0 -0 -1 -2 -0 -2 -5 -2 1 -3 3 3 -1 -2 -1 1 -1 -1 -0 -6 -5 -4 -5 -1 2 3 3 -8 4 -11 7 5 1 1 1 -0 2 1 -2 -3 -0 2 1 5
-1 -1 -1 -0 1 -0 -4 1 -1 -2 -0 2 -2 0 2 3 -2 -1 -1 -0 1 1 -4 -5 -1 -3 -0 -4 1 3 3 -1 0 8 3 5 2 -1 1 -3 -1 -1 -1 -0 6 -2 0
-1 0 -0 0 1 -1 -1 -2 1 -2 -0 0 -2 -1 1 -0 -1 -4 -3 -0 -2 3 2 -6 -2 -4 -1 -3 -2 -1 5 -2 -3 12 -1 1 -0 -1 -1 -1 -6 -1 -0 1 -1 -2 3
-3 0 1 -1 1 0 0 -1 0 -1 -1 -1 1 -0 2 1 1 -0 1 -4 2 0 -2 -4 -1 -0 -1 5 0 -1 3 -4 12 -1 -1 -6 1 -3 -1 -1 -2 -2 -2 -1 -0 -1 1
-1 -1 0 -1 -1 1 1 -0 -2 -2 -1 -2 1 -1 -2 2 1 1 -2 -0 -3 2 -0 -1 0 -1 -2 4 -2 -2 -0 3 -2 0 -0 -1 -1 -1 -1 0 -2 0 -1 1 -1 0 -1
0 -0 0 0 -3 1 2 2 -4 0 1 -4 3 -0 -1 0 2 0 -1 -3 3 -0 -2 0 0 -0 -1 1 1 -1 1 3 -2 -2 0 1 1 -0 -2 1 -2 0 -2 -0 -2 -0 -0
3 -2 1 1 -0 -1 1 1 -2 2 1 -2 1 1 -2 -0 2 4 -1 1 -2 -4 -5 0 -0 -2 -0 -4 -2 -1 -1 -2 -2 0 1 0 0 -3 1 -0 -3 -1 -0 -1 -0 -2 -3
2 -1 1 -1 0 -1 1 -1 -1 1 1 -0 -4 1 -0 -1 -0 1 -1 -3 0 -2 -10 -9 1 -4 1 -2 -1 -4 -1 1 -0 1 0 -4 2 1 -0 -2 -2 -3 -1 -1 -1 -1 -1
-0 0 -0 -1 1 -0 1 -1 1 0 -0 1 -3 1 -2 -1 0 1 -5 1 3 -19 -9 -1 -0 1 2 1 -0 0 -1 -2 0 -2 -0 1 -0 -2 -1 1 -0 -1 -3 -2 -1 -1 0
1 2 -2 -3 2 -1 1 1 1 -1 -0 -1 -3 -1 0 -1 2 -2 -0 1 -13 -12 -8 -3 -0 -0 -0 1 1 0 -0 0 -4 -4 -0 -2 0 0 -1 -4 -1 -3 -2 -2 -4 0 -5
2 3 0 -2 2 -0 1 1 -1 2 -1 -1 -3 -1 0 2 -2 3 1 -9 -11 -4 -1 -2 0 0 -0 -0 2 -0 1 1 0 -2 -0 -1 6 -1 0 -2 -6 -0 -4 -5 -4 -2 -4
-1 1 3 2 0 2 -0 1 -1 1 -1 -2 -2 -3 2 1 2 3 -4 -6 -8 -3 -3 0 1 1 1 1 -2 0 0 -0 -2 -2 -6 -2 1 1 0 -0 -2 -0 -0 -4 -4 -0 -4
-0 -1 2 3 -2 1 -1 -1 2 0 0 -2 -2 -1 1 3 1 2 -8 -2 -1 -1 0 1 -1 -2 -0 0 -1 -1 0 -4 -1 -2 -1 -1 -3 -0 1 1 1 -2 -4 -6 -0 -2 -1
-3 0 -0 4 -2 -1 0 -2 1 1 1 -2 -2 -1 0 1 2 2 -4 -4 -1 -2 1 -1 0 0 -1 -2 -2 -0 -4 -4 -0 0 0 -2 -7 3 2 -0 -3 2 2 0 -6 -4 -4
-3 0 -1 3 -0 -0 -2 -2 -0 1 -1 0 -2 -5 1 1 -2 1 -1 -1 2 -1 1 -1 0 1 -0 -0 0 1 -3 -3 -1 -5 -1 -4 -3 -1 -3 1 0 -2 -1 -2 1 -1 -0
-2 -1 -0 -1 1 1 -2 -2 1 -0 -1 -1 -3 -1 0 -1 -5 -2 -4 -1 0 -0 -1 0 -0 -1 -0 -1 -1 -0 -0 -1 -1 -1 -4 -5 -2 -1 2 -2 1 1 -0 -0 -0 -0 -3
3 -2 -0 -0 -1 -0 -1 -2 0 -1 -2 -1 -2 -7 -1 -2 1 -1 -0 -2 -2 1 -1 1 -1 1 2 1 -0 -2 0 -0 1 -1 -1 -2 -0 -5 -10 -9 -5 2 1 1 -1 5 -5
1 -1 -1 1 -4 -2 0 -1 1 -1 -1 -2 -3 -1 -2 -4 -3 -0 0 1 -0 -2 0 1 -2 0 -1 0 -0 -0 0 1 1 0 2 -4 -1 0 -1 -0 0 -2 -1 -0 4 -9 4
-3 1 1 -2 -2 -2 2 -3 -1 -3 -0 -0 -2 -3 1 0 0 -0 -0 -1 1 -3 3 -4 1 -0 1 1 -2 -1 -1 -1 -5 2 -0 1 -1 -1 -2 -0 0 0 0 0 -0 -1 3
0 -3 -2 -3 -0 -4 3 -1 -1 -5 -5 -3 -2 -1 0 1 0 -2 -2 -1 -1 -0 -6 1 2 1 -0 -2 6 1 2 1 -2 -6 -0 -2 -2 -2 -3 0 -1 -4 -10 -2 -1 0 -6
-3 0 -1 -3 -0 -3 1 -1 -4 -1 -3 -4 -3 -2 -1 -1 -0 -3 -0 0 -0 -1 -0 -7 5 5 -11 -4 -14 5 2 2 2 -0 -3 -1 -1 -1 -1 -2 -4 -21 -0 -2 -3 -4 0
-3 -1 -0 -1 -2 -2 -0 2 -2 -1 -5 -2 -4 -2 -2 -1 0 -1 0 0 -2 -2 0 0 -6 6 1 4 -2 1 1 4 -2 -1 1 -2 -2 -0 -1 -1 -10 -7 -1 -3 -5 -9 -2
0 -2 -2 -2 1 -4 2 1 -3 -4 -6 -4 -6 -2 -4 -2 -3 1 0 0 -0 -0 -3 -2 -5 -3 3 1 2 1 -2 -3 2 1 0 -0 -1 -1 1 -0 -2 -8 -1 -0 -1 -7 -0
-1 -3 -0 -1 -1 -1 -1 2 0 -3 -4 -3 -4 -1 -2 -1 -2 -0 -2 -2 1 1 -0 -1 -5 -9 6 0 1 1 -2 -5 -3 -2 0 1 1 -1 0 -1 -7 -5 -2 1 -2 -17 -1
-3 -0 -2 1 -3 0 -1 0 2 -2 -4 -5 -4 -3 -4 -3 -4 -3 3 -0 -0 1 1 -2 -8 3 -2 1 2 -1 1 -2 0 -4 -5 -6 -3 -0 2 2 -9 -1 -0 -5 -11 -1 0
-2 -2 -0 -1 -3 -0 1 2 4 -1 -3 -3 -3 -0 -4 -10 -5 3 1 0 3 7 11 -1 -0 -0 1 -1 -2 -1 -1 -1 -0 -2 -0 -4 -10 -10 -11 -14 -3 -2 -1 -0 -0 -0 -0
Height
1544 1540 1537 1534 1530 1526 1522 1519 1516 1512 1509 1505 1501 1497 1494 1490 1486 1484 1481 1479 1479 1478 1478 1477 1476 1476 1477 1478 1477 1476 1477 1478 1479 1481 1485 1488 1491 1493 1495 1495 1499 1501 1501 1506 1509 1514 1517
1543 1540 1537 1533 1529 1525 1522 1518 1514 1511 1508 1504 1502 1497 1493 1490 1488 1485 1482 1481 1481 1480 1479 1479 1478 1478 1479 1479 1478 1478 1477 1476 1478 1481 1485 1487 1491 1493 1495 1494 1498 1501 1502 1508 1514 1516 1519
1542 1539 1536 1532 1528 1525 1521 1517 1513 1510 1506 1503 1501 1498 1494 1491 1488 1486 1484 1482 1482 1481 1481 1481 1480 1480 1480 1482 1479 1478 1477 1476 1478 1481 1485 1487 1490 1493 1494 1496 1499 1500 1507 1510 1512 1513 1520
1541 1538 1535 1531 1527 1524 1520 1516 1512 1509 1505 1502 1499 1497 1494 1491 1489 1487 1484 1484 1482 1482 1482 1482 1481 1481 1480 1480 1479 1478 1479 1480 1479 1481 1485 1488 1490 1493 1494 1495 1498 1502 1505 1512 1514 1518 1520
1540 1537 1534 1531 1527 1523 1519 1516 1512 1508 1504 1501 1498 1497 1494 1492 1490 1489 1487 1485 1483 1482 1482 1483 1482 1481 1482 1481 1480 1479 1480 1479 1480 1482 1485 1489 1492 1493 1495 1499 1505 1507 1509 1512 1517 1516 1518
1539 1536 1533 1530 1526 1522 1518 1515 1512 1507 1504 1501 1497 1495 1494 1492 1489 1488 1487 1486 1485 1484 1483 1482 1483 1485 1483 1481 1481 1480 1480 1480 1482 1483 1487 1491 1493 1496 1496 1501 1501 1506 1509 1511 1514 1515 1517
1538 1535 1533 1529 1526 1521 1517 1514 1511 1507 1503 1499 1495 1493 1492 1490 1490 1488 1487 1487 1489 1488 1484 1485 1486 1485 1484 1482 1481 1482 1481 1482 1483 1482 1489 1492 1494 1493 1498 1498 1501 1506 1509 1511 1510 1508 1514
1536 1534 1531 1528 1525 1520 1516 1513 1510 1506 1502 1498 1494 1492 1491 1490 1489 1489 1488 1487 1487 1488 1488 1486 1485 1485 1485 1483 1482 1483 1483 1483 1483 1487 1492 1491 1489 1494 1497 1499 1501 1504 1508 1511 1509 1508 1511
1534 1532 1530 1527 1523 1520 1515 1512 1508 1505 1502 1497 1494 1492 1490 1489 1489 1489 1488 1489 1488 1487 1488 1488 1486 1485 1487 1487 1484 1485 1484 1484 1489 1492 1497 1493 1490 1493 1497 1500 1504 1508 1511 1513 1512 1510 1512
1532 1530 1528 1525 1522 1518 1515 1511 1506 1503 1500 1496 1494 1491 1489 1489 1490 1488 1488 1487 1487 1488 1495 1492 1488 1489 1489 1488 1487 1486 1486 1488 1491 1495 1498 1495 1492 1495 1500 1503 1505 1508 1506 1509 1511 1516 1521
1530 1528 1526 1524 1520 1517 1513 1509 1505 1502 1499 1496 1493 1490 1488 1486 1488 1488 1488 1486 1485 1488 1507 1492 1488 1490 1488 1490 1491 1488 1487 1487 1492 1496 1500 1499 1494 1498 1502 1502 1502 1507 1504 1508 1511 1519 1518
1528 1526 1524 1522 1519 1516 1512 1509 1504 1500 1497 1494 1492 1490 1488 1488 1487 1487 1486 1485 1487 1497 1506 1492 1490 1488 1489 1489 1492 1491 1488 1489 1493 1497 1497 1497 1497 1499 1502 1504 1503 1506 1508 1513 1519 1524 1524
1525 1523 1522 1520 1517 1515 1512 1508 1503 1500 1496 1493 1492 1490 1488 1487 1488 1486 1485 1487 1496 1503 1497 1494 1489 1488 1485 1489 1493 1493 1491 1491 1497 1503 1498 1498 1502 1503 1502 1505 1506 1507 1511 1530 1535 1524 1521
1523 1521 1519 1517 1516 1513 1510 1507 1502 1498 1494 1491 1491 1490 1489 1488 1487 1486 1487 1492 1499 1494 1496 1491 1490 1487 1486 1485 1489 1492 1492 1492 1493 1494 1498 1497 1502 1503 1503 1504 1506 1510 1513 1526 1523 1527 1526
1520 1519 1517 1515 1514 1511 1509 1506 1502 1497 1492 1491 1491 1491 1489 1488 1487 1487 1488 1501 1498 1500 1493 1489 1488 1487 1487 1486 1489 1490 1489 1490 1489 1489 1500 1504 1504 1503 1504 1504 1506 1513 1517 1516 1524 1537 1543
1517 1516 1515 1513 1512 1510 1507 1505 1500 1496 1491 1491 1491 1491 1490 1488 1487 1488 1490 1497 1495 1488 1487 1487 1484 1483 1485 1488 1491 1492 1488 1487 1488 1488 1491 1495 1508 1502 1504 1504 1507 1506 1510 1517 1526 1527 1524
1513 1513 1513 1511 1510 1508 1506 1503 1499 1495 1492 1491 1491 1492 1491 1489 1488 1488 1499 1503 1490 1485 1487 1488 1486 1484 1482 1486 1487 1491 1490 1485 1485 1491 1492 1495 1498 1506 1504 1504 1501 1507 1508 1512 1514 1522 1525
1509 1509 1510 1509 1508 1506 1504 1502 1498 1495 1492 1492 1492 1494 1492 1490 1491 1493 1498 1493 1488 1486 1485 1486 1485 1485 1483 1479 1482 1488 1484 1479 1481 1486 1490 1490 1498 1508 1498 1498 1498 1498 1500 1505 1506 1512 1527
1504 1506 1507 1507 1506 1504 1503 1501 1497 1494 1492 1491 1492 1493 1493 1492 1502 1502 1494 1492 1490 1487 1485 1483 1481 1478 1477 1477 1478 1479 1477 1475 1476 1481 1485 1487 1499 1503 1498 1501 1498 1500 1498 1498 1505 1514 1527
1500 1502 1503 1504 1504 1503 1502 1500 1496 1493 1491 1491 1492 1496 1493 1493 1496 1498 1499 1494 1490 1484 1482 1479 1478 1478 1478 1477 1473 1473 1475 1473 1474 1476 1480 1482 1489 1491 1495 1488 1490 1492 1494 1494 1498 1496 1490
1496 1499 1500 1501 1501 1501 1501 1499 1496 1493 1491 1492 1492 1497 1497 1502 1496 1498 1499 1496 1492 1488 1484 1482 1479 1479 1478 1479 1476 1474 1472 1473 1472 1472 1476 1480 1487 1487 1484 1483 1487 1488 1486 1488 1491 1488 1487
1492 1495 1496 1497 1498 1499 1499 1497 1495 1493 1492 1492 1492 1493 1495 1495 1495 1496 1497 1494 1493 1492 1492 1485 1484 1484 1482 1483 1477 1473 1472 1473 1471 1473 1475 1479 1485 1489 1493 1480 1484 1485 1484 1485 1482 1479 1477
1487 1491 1493 1495 1496 1497 1497 1496 1495 1493 1492 1490 1490 1491 1492 1495 1495 1497 1497 1494 1494 1495 1488 1487 1488 1488 1482 1478 1476 1473 1468 1466 1466 1469 1474 1478 1484 1492 1491 1484 1483 1488 1470 1470 1471 1468 1465
1482 1486 1489 1491 1493 1494 1495 1494 1494 1492 1491 1491 1491 1491 1491 1493 1493 1493 1493 1494 1494 1493 1491 1487 1484 1482 1480 1475 1475 1469 1467 1464 1464 1465 1466 1476 1480 1487 1493 1488 1494 1463 1455 1456 1460 1456 1459
1477 1482 1486 1488 1490 1492 1493 1493 1492 1491 1491 1491 1491 1491 1492 1492 1492 1490 1491 1491 1490 1487 1487 1482 1478 1481 1476 1472 1475 1467 1464 1463 1462 1462 1465 1465 1474 1479 1481 1488 1475 1453 1452 1456 1457 1449 1445
1473 1478 1482 1485 1487 1489 1491 1491 1490 1490 1491 1492 1491 1491 1491 1493 1495 1492 1492 1492 1490 1487 1484 1479 1476 1472 1472 1470 1467 1460 1456 1455 1461 1461 1463 1466 1466 1467 1487 1480 1479 1456 1448 1448 1450 1455 1439
1468 1473 1477 1482 1484 1486 1488 1490 1489 1489 1490 1492 1492 1491 1491 1491 1492 1492 1492 1492 1489 1488 1487 1482 1479 1472 1469 1463 1462 1459 1455 1448 1454 1459 1463 1465 1467 1467 1472 1468 1463 1450 1447 1449 1454 1451 1438
1463 1469 1473 1478 1481 1483 1485 1487 1487 1487 1489 1491 1493 1492 1492 1492 1490 1488 1487 1488 1487 1485 1484 1482 1479 1472 1471 1465 1454 1452 1452 1450 1448 1446 1453 1454 1463 1461 1467 1464 1463 1442 1447 1450 1442 1437 1436
1458 1464 1469 1474 1477 1481 1483 1485 1485 1485 1486 1489 1491 1490 1491 1493 1488 1485 1480 1480 1480 1481 1483 1482 1482 1482 1478 1477 1475 1469 1455 1450 1448 1447 1446 1450 1446 1452 1453 1449 1438 1438 1437 1437 1437 1437 1436